Regional Weather Roundup
Issued by NWS

Home | Current Version | Previous Version | Text Only | Print | Product List | Glossary Off
Versions: 1 2 3 4 5 6 7 8 9 10 11 12 13 14 15 16 17 18 19 20 21 22 23 24 25 26 27 28 29 30 31 32 33 34 35 36 37 38 39 40 41 42 43 44 45 46 47 48 49 50

000
ASUS44 KMEG 291810
RWRTN
TENNESSEE HOURLY STATE WEATHER ROUNDUP
NATIONAL WEATHER SERVICE MEMPHIS TN
100 PM CDT SAT AUG 29 2015

TNZ002-004-019-021-049-052-054-088>092-291900-
WEST TENNESSEE

CITY           SKY/WX    TMP DP  RH WIND       PRES   REMARKS
MEMPHIS INTL   MOSUNNY   91  64  40 VRB6      30.07F HX  92
NWS MEMPHIS      N/A     89 N/A N/A MISG        N/A
JACKSON        SUNNY     89  67  47 SW7       30.08F HX  92
DYERSBURG      PTSUNNY  N/A N/A N/A MISG        N/A
UNION CITY     SUNNY     90  72  55 VRB5      30.06F HX  96
PARIS          MOSUNNY   86  64  48 S8        30.08F
LEXINGTON      MOSUNNY   84  72  65 SW6       30.09F
$$

TNZ008-025-027-028-033-062-065-066-291900-
NORTH MIDDLE TENNESSEE

CITY           SKY/WX    TMP DP  RH WIND       PRES   REMARKS
NASHVILLE      PTSUNNY   86  68  54 VRB5      30.11F
CLARKSVILLE    MOSUNNY   87  65  47 VRB5      30.08F
SMYRNA         MOSUNNY   87  71  58 CALM      30.12F HX  92
COOKEVILLE     MOSUNNY   84  72  65 VRB7      30.14F
CROSSVILLE     PTSUNNY   80  66  62 VRB7      30.21F
$$

TNZ061-075-076-078-094-096-097-291900-
SOUTH MIDDLE TENNESSEE

CITY           SKY/WX    TMP DP  RH WIND       PRES   REMARKS
TULLAHOMA      MOSUNNY   82  66  57 SE7       30.16F
WINCHESTER     PTSUNNY   82  68  61 SE10      30.14F
MCMINNVILLE    PTSUNNY   82  72  69 VRB3      30.15F
COLUMBIA       MOSUNNY   86  73  66 SW6       30.10F HX  93
SHELBYVILLE    SUNNY     81  73  78 S3        30.14F
$$

TNZ017-018-042-046-047-291900-
NORTHEAST TENNESSEE

CITY           SKY/WX    TMP DP  RH WIND       PRES   REMARKS
TRI CITIES     PTSUNNY   81  59  47 N3        30.23F
ELIZABETHTON   CLEAR     81  59  47 CALM      30.23F
$$

TNZ012-013-036-069-073-074-291900-
CENTRAL EAST TENNESSEE

CITY           SKY/WX    TMP DP  RH WIND       PRES   REMARKS
KNOXVILLE      PTSUNNY   89  71  55 VRB3      30.18F HX  95
OAK RIDGE      PTSUNNY   83  64  52 S6        30.20F
GATLINBURG       N/A     84  59  42 VRB3      30.18F
MORRISTOWN     CLEAR     82  66  57 N5        30.21F
$$

TNZ083-085-099-291900-
SOUTHEAST TENNESSEE

CITY           SKY/WX    TMP DP  RH WIND       PRES   REMARKS
CHATTANOOGA    PTSUNNY   84  68  58 SE8G17    30.16F
$$

SKY/WX REPORTED AS FAIR MEANS FEW OR NO CLOUDS BELOW
12 THOUSAND FEET.



USA.gov is the U.S. government's official web portal to all federal, state and local government web resources and services.